Wind_Speed
5 5 5 5 5 4 7 5 4 6 8 9 8 7 9 10 10 10 10 10 10 10 10 9 9 9 8 8 9 9 9 10 9 10 10 10 9 9 9 9 9 8 8 7 7 6 6 5 5
5 5 4 4 5 9 9 7 8 10 10 10 10 10 12 11 11 11 10 11 11 11 11 10 10 10 10 10 10 10 10 10 10 10 10 11 11 11 10 10 10 9 9 8 8 7 7 7 6
5 4 4 5 8 11 11 10 10 12 12 11 12 12 12 12 12 12 12 12 12 12 11 11 11 11 11 11 11 11 11 11 11 11 11 12 12 12 12 11 11 10 10 10 9 9 9 8 8
6 5 4 4 5 6 9 12 10 11 13 13 11 13 14 14 14 14 13 13 13 13 13 13 13 13 12 12 11 12 12 12 13 13 13 13 13 13 13 13 12 12 12 12 11 11 11 10 10
8 6 4 6 7 7 11 13 12 10 12 11 12 15 16 15 15 16 16 16 15 14 14 14 13 13 13 13 13 13 14 15 15 15 15 15 15 15 15 14 14 14 13 13 13 13 13 13 12
11 9 5 5 9 10 12 16 13 11 12 11 10 15 18 17 16 17 17 17 16 15 14 14 14 14 14 15 15 16 16 17 18 18 17 17 17 17 17 17 16 16 15 15 15 15 15 15 15
14 12 9 5 8 11 16 19 17 16 15 13 14 19 20 18 16 17 18 18 17 16 17 16 16 16 17 17 18 18 19 20 20 20 20 20 20 20 19 19 19 18 18 17 17 17 17 17 17
16 15 11 6 9 12 16 19 18 15 17 18 18 21 23 20 19 19 19 19 20 19 19 19 19 19 19 19 20 21 22 22 23 23 23 23 23 23 22 22 21 21 20 20 20 19 19 19 18
18 17 13 7 10 13 16 17 16 16 17 20 20 22 23 22 20 20 21 21 22 22 22 22 21 21 22 21 22 23 24 24 25 25 25 25 25 26 25 25 24 24 23 23 22 21 21 20 20
19 19 15 12 16 18 20 20 19 17 18 22 23 24 23 22 20 22 23 23 24 24 25 24 24 24 24 24 25 25 26 26 27 27 27 27 27 28 28 27 27 26 25 24 24 24 23 23 22
21 20 18 17 19 21 23 22 21 20 22 25 27 26 25 24 24 25 26 26 26 26 27 26 26 27 27 28 28 28 28 28 29 29 28 28 29 30 30 29 28 28 26 25 25 25 25 25 24
21 20 20 20 22 23 22 21 22 22 25 28 29 28 29 28 29 29 27 27 27 28 29 30 30 29 30 30 30 31 31 30 31 32 31 31 31 31 32 32 31 30 29 28 28 27 27 26 26
20 20 20 21 22 22 22 21 22 24 26 28 29 29 29 30 30 30 31 30 30 31 31 32 33 32 32 32 33 33 33 33 34 35 34 34 34 33 34 33 34 33 32 31 31 30 29 29 28
19 19 19 19 20 20 20 20 21 23 25 26 27 28 28 29 30 31 32 33 33 33 32 33 34 34 34 35 35 35 35 36 37 37 37 37 36 36 35 35 35 34 34 33 32 31 31 30 29
16 15 15 15 16 17 17 17 20 23 24 24 25 26 26 27 28 30 31 32 33 33 33 34 35 35 35 36 37 37 37 39 40 40 40 40 39 38 38 38 37 36 36 34 33 33 33 32 31
10 9 8 10 13 15 14 16 21 22 23 24 25 24 23 24 26 27 29 30 32 33 34 35 36 37 37 38 38 39 40 41 41 42 42 42 41 40 38 38 38 38 37 36 35 34 33 32 32
5 8 8 12 14 14 13 18 21 24 25 25 24 24 24 25 25 27 28 30 32 33 35 36 38 39 39 39 39 41 42 42 43 42 42 41 39 39 37 37 35 37 36 35 35 33 32 31 32
8 10 12 15 15 15 16 20 23 24 25 25 23 23 23 24 25 27 28 30 31 33 35 36 38 40 40 40 40 42 41 41 42 41 40 39 37 37 37 37 35 35 34 33 33 33 32 31 31
11 10 11 13 15 19 20 21 22 22 21 21 20 20 21 23 24 25 27 29 30 32 34 36 38 39 40 40 40 41 41 41 41 39 38 38 38 38 37 37 36 34 32 32 33 32 31 31 31
11 10 11 14 18 20 19 20 20 20 18 17 17 19 19 20 21 22 25 26 28 31 33 35 37 38 39 40 40 41 41 41 40 39 39 38 37 37 37 37 36 35 33 33 32 31 32 32 30
8 11 14 16 17 18 19 22 22 21 18 16 17 18 19 20 22 23 25 26 29 31 33 34 36 38 38 39 40 41 41 41 41 40 39 38 37 37 37 36 35 35 34 34 33 32 31 31 31
11 14 14 14 16 18 21 26 26 21 17 13 15 19 21 23 24 25 27 28 30 32 33 34 36 37 38 39 40 40 40 40 40 40 40 39 38 38 39 38 37 37 37 36 34 33 33 34 33
11 12 13 14 16 19 25 28 24 17 14 16 20 22 24 25 26 28 29 30 32 33 34 35 36 37 38 39 40 40 40 40 40 40 40 40 40 39 39 39 40 39 38 38 37 36 35 36 35
9 10 11 15 20 25 26 25 20 14 17 20 23 25 26 27 28 29 31 32 33 35 36 36 37 38 39 40 41 41 41 41 40 40 40 41 41 41 41 41 40 40 39 39 39 39 39 38 38
7 9 14 18 20 20 15 16 10 12 18 22 25 27 29 30 30 30 31 32 34 36 37 38 38 39 39 39 40 40 41 41 41 41 41 42 42 42 43 43 42 42 42 41 41 41 41 42 42
6 9 14 17 20 19 15 13 11 13 18 23 26 28 30 30 32 33 34 36 37 38 39 38 39 40 40 40 40 40 41 41 42 42 43 43 43 43 43 44 44 44 44 44 44 44 45 45 46
8 9 10 12 13 17 19 20 18 19 20 24 27 29 30 31 33 35 36 37 38 39 39 40 41 41 41 41 40 40 41 41 42 43 44 44 45 45 45 46 46 46 46 47 47 48 48 48 49
9 10 9 9 10 11 18 20 20 22 22 24 28 30 31 32 35 37 38 39 39 40 40 41 42 42 41 40 40 41 42 42 43 44 44 44 45 46 47 47 47 48 48 49 49 50 51 51 52
10 10 10 9 10 9 15 22 24 24 24 26 28 31 32 34 36 38 39 39 40 40 41 42 42 43 42 42 42 43 43 44 45 45 45 45 45 45 46 47 48 48 49 50 51 52 53 54 54
8 9 9 9 9 9 12 21 25 26 26 28 30 32 34 36 37 38 39 39 40 41 42 42 43 43 43 43 43 44 44 45 46 46 46 46 46 46 47 48 48 49 50 51 52 52 53 54 56
Wind_Direction
36 40 41 45 39 49 64 50 7 328 321 325 326 325 303 306 306 303 301 303 305 303 305 308 310 310 311 314 317 318 320 321 321 322 323 324 327 329 330 328 326 322 318 316 315 315 316 320 324
4 9 11 8 359 21 27 15 343 329 331 334 333 322 313 317 313 308 304 303 304 302 303 304 306 307 308 310 311 312 313 314 313 314 316 317 319 319 320 319 317 313 309 306 304 300 297 298 301
331 337 347 347 6 2 352 337 333 332 331 331 328 318 318 319 317 312 307 305 304 303 302 302 303 304 306 307 308 308 309 310 311 311 311 312 313 314 314 312 310 306 301 297 294 291 289 287 287
304 312 337 347 14 348 322 312 318 323 320 325 319 307 311 313 315 313 309 307 306 305 303 301 301 302 303 305 306 306 306 306 307 307 308 308 308 310 310 308 305 301 296 291 287 284 282 279 278
289 291 297 352 340 327 309 300 305 312 310 314 308 302 304 305 307 309 308 307 305 304 304 304 304 304 303 304 305 305 305 305 305 305 304 304 305 305 304 304 301 298 293 288 283 281 277 274 271
283 277 276 311 313 309 296 296 304 295 298 301 297 293 298 300 304 307 307 309 308 308 307 305 305 306 306 306 305 303 303 303 303 303 303 301 302 302 300 299 297 295 291 287 282 279 276 272 269
280 275 266 258 291 295 289 290 295 296 294 287 288 290 291 292 299 305 308 308 308 309 309 307 305 305 306 305 303 302 302 303 302 303 302 301 300 300 298 296 293 290 288 285 282 278 274 272 269
280 275 263 250 285 281 279 286 294 293 287 287 287 284 287 293 299 303 305 306 306 306 306 306 306 306 306 305 304 302 302 302 303 303 301 299 298 298 295 293 291 290 286 285 281 278 274 270 267
278 274 267 244 269 270 269 277 285 287 291 287 282 281 287 291 296 299 302 303 304 305 307 307 307 305 306 305 306 306 305 304 303 303 301 299 298 296 294 291 289 287 285 284 281 278 276 272 268
275 274 264 245 253 255 259 271 279 284 282 277 277 277 282 285 290 296 297 299 301 303 306 307 309 307 307 308 307 307 306 305 302 303 303 301 299 297 295 293 289 285 282 281 279 276 273 271 269
274 273 265 249 254 259 261 267 271 271 269 272 272 276 282 286 290 292 292 295 298 300 303 305 307 307 307 307 307 305 304 303 302 303 302 300 300 298 296 292 289 287 281 278 276 274 271 269 267
274 274 270 263 259 263 266 268 270 268 269 272 275 280 281 282 287 290 291 291 293 296 298 299 301 302 303 304 304 303 302 301 301 302 301 300 299 298 297 293 290 286 281 277 274 272 270 267 265
275 275 274 272 271 272 272 270 268 269 270 274 279 281 282 283 283 284 286 286 289 290 292 294 297 298 299 300 300 300 300 299 298 299 300 299 297 295 295 293 290 287 281 279 273 269 267 264 260
273 274 275 274 274 273 274 271 269 271 274 276 278 279 278 277 278 280 283 285 286 287 287 290 292 294 294 295 296 296 296 296 297 298 297 296 294 292 292 291 288 286 282 279 276 271 267 263 261
276 278 283 284 278 278 278 273 269 271 274 277 278 277 276 277 277 277 279 282 283 285 287 287 288 290 290 291 292 293 294 293 294 294 294 293 291 288 288 288 285 282 280 278 276 274 269 264 261
283 294 298 278 268 276 280 267 272 276 278 280 281 278 277 277 276 277 279 280 282 284 285 285 287 286 287 289 289 291 291 291 291 292 292 292 290 287 286 287 285 281 277 275 273 273 269 262 259
326 306 279 248 254 268 274 268 272 277 283 284 284 282 282 280 280 279 279 280 281 282 284 285 286 287 288 289 289 290 290 289 290 290 289 289 288 285 284 288 288 282 278 274 272 273 267 261 257
268 253 246 247 255 270 274 272 276 278 284 286 285 285 285 284 282 281 281 281 282 283 284 285 285 286 289 290 290 289 289 289 290 289 288 285 284 284 284 286 287 284 278 273 271 270 265 260 254
249 248 253 257 263 275 280 278 278 280 284 289 289 292 289 287 286 284 283 283 283 284 284 285 286 288 289 290 290 291 291 290 291 291 289 286 282 283 283 284 283 282 279 273 270 268 261 257 253
251 250 254 258 265 275 280 278 277 274 280 292 300 302 298 295 293 293 291 290 288 287 287 287 288 290 290 290 289 290 291 291 291 293 290 288 285 282 281 280 278 277 275 270 268 265 258 254 251
248 250 255 261 265 274 276 281 275 272 276 290 303 306 305 303 302 300 296 295 294 293 292 292 291 292 292 292 293 292 291 291 291 290 288 285 285 284 281 279 278 276 273 270 266 264 255 252 249
254 245 247 266 273 274 276 277 274 271 283 295 316 314 312 309 306 304 302 301 300 299 298 296 296 295 295 295 295 294 292 292 291 289 288 286 284 283 281 279 278 276 274 270 265 260 254 249 249
260 265 262 264 265 264 263 262 269 283 311 323 326 321 317 314 311 308 307 306 305 304 303 301 300 299 298 297 296 295 294 293 291 289 288 287 285 283 281 280 279 276 273 268 264 258 255 251 248
271 276 281 274 267 262 267 276 286 311 329 330 328 325 321 317 313 310 310 310 309 307 306 305 303 302 301 299 298 296 295 294 292 291 289 288 286 284 281 279 278 276 273 268 262 257 254 252 250
270 284 290 293 301 304 304 289 295 330 332 331 327 324 322 320 316 315 314 313 312 310 309 308 307 306 304 302 300 298 297 295 294 292 290 288 286 284 282 280 277 274 272 269 265 259 255 253 251
292 297 305 316 324 329 327 321 339 338 331 328 324 322 321 321 319 318 318 317 316 314 313 311 311 310 307 305 303 301 299 297 295 294 292 289 287 284 282 279 277 274 271 268 266 262 258 255 252
300 297 301 313 320 327 327 327 329 334 329 328 325 324 324 323 322 321 320 319 318 317 315 314 313 311 309 307 304 302 301 299 298 295 293 291 288 285 282 279 276 273 270 267 264 262 259 256 253
311 305 302 302 310 326 324 325 330 331 328 329 326 326 326 325 324 324 323 321 320 318 317 315 314 313 310 308 306 304 303 301 299 297 295 292 289 286 283 280 277 274 271 267 264 261 258 256 253
314 310 309 308 312 323 323 316 322 327 329 329 328 328 328 327 326 325 324 323 321 320 318 316 315 313 310 308 307 305 303 301 299 297 294 292 290 287 284 281 278 274 271 268 265 262 259 256 254
317 318 319 322 329 335 326 311 320 327 331 330 331 330 328 328 328 327 326 324 322 320 319 317 315 314 312 310 308 306 304 302 300 297 295 293 290 288 285 282 278 276 272 269 266 263 260 257 254
Height
5923 5923 5923 5924 5924 5922 5919 5919 5921 5921 5920 5919 5918 5918 5916 5916 5916 5918 5914 5913 5913 5912 5911 5910 5910 5909 5909 5908 5908 5907 5907 5906 5905 5905 5904 5904 5903 5902 5901 5900 5900 5899 5899 5898 5897 5897 5896 5896 5896
5923 5924 5924 5924 5923 5920 5919 5919 5921 5921 5920 5919 5918 5917 5915 5915 5915 5914 5913 5912 5912 5911 5910 5909 5909 5908 5908 5907 5907 5906 5906 5905 5904 5904 5903 5903 5902 5901 5900 5900 5899 5898 5898 5897 5897 5896 5896 5896 5895
5923 5924 5925 5924 5922 5922 5922 5922 5922 5920 5919 5919 5917 5916 5915 5914 5914 5913 5912 5911 5911 5910 5909 5908 5908 5907 5907 5906 5905 5905 5904 5904 5903 5903 5902 5901 5901 5900 5899 5898 5898 5897 5897 5896 5896 5895 5895 5895 5895
5923 5924 5925 5925 5923 5924 5924 5923 5922 5921 5920 5918 5917 5915 5914 5913 5913 5912 5911 5910 5910 5909 5908 5907 5906 5906 5905 5904 5904 5903 5903 5902 5901 5901 5900 5900 5899 5898 5898 5897 5896 5896 5895 5895 5894 5894 5894 5893 5893
5921 5923 5924 5923 5923 5924 5924 5922 5921 5921 5918 5918 5916 5913 5912 5911 5911 5911 5910 5909 5908 5907 5906 5905 5905 5904 5903 5902 5902 5901 5901 5900 5899 5899 5898 5897 5897 5896 5895 5895 5894 5893 5893 5892 5892 5892 5892 5891 5891
5920 5921 5922 5923 5923 5925 5923 5920 5919 5918 5917 5915 5913 5910 5909 5909 5909 5908 5907 5906 5905 5905 5904 5903 5903 5902 5901 5900 5900 5899 5898 5897 5897 5896 5895 5895 5894 5893 5893 5892 5891 5891 5890 5890 5889 5889 5889 5889 5889
5918 5919 5919 5921 5924 5925 5921 5918 5918 5916 5915 5913 5912 5908 5906 5905 5905 5905 5905 5903 5902 5902 5901 5901 5900 5899 5898 5898 5897 5896 5895 5894 5893 5893 5892 5891 5890 5890 5889 5889 5888 5887 5887 5887 5886 5886 5886 5886 5886
5915 5916 5917 5919 5923 5923 5918 5915 5915 5914 5912 5911 5909 5906 5903 5903 5903 5903 5902 5900 5899 5899 5898 5898 5897 5896 5895 5894 5893 5892 5892 5891 5890 5889 5888 5887 5886 5885 5885 5884 5884 5884 5883 5883 5883 5883 5883 5883 5883
5911 5913 5914 5916 5919 5919 5915 5913 5913 5911 5910 5907 5905 5902 5901 5901 5900 5900 5899 5898 5896 5895 5895 5894 5894 5893 5892 5891 5890 5889 5888 5887 5886 5885 5883 5882 5882 5881 5880 5879 5879 5879 5879 5879 5879 5879 5879 5879 5879
5908 5908 5910 5912 5913 5912 5911 5910 5909 5909 5907 5902 5900 5899 5898 5896 5896 5896 5896 5894 5893 5892 5891 5891 5890 5889 5888 5887 5886 5884 5883 5882 5881 5880 5879 5877 5876 5875 5875 5874 5873 5873 5873 5874 5874 5874 5874 5875 5875
5903 5904 5905 5905 5906 5905 5906 5906 5905 5904 5902 5898 5895 5895 5895 5892 5892 5893 5892 5890 5889 5888 5887 5886 5886 5885 5884 5883 5882 5880 5878 5877 5876 5875 5873 5872 5871 5870 5869 5868 5868 5867 5867 5868 5868 5869 5869 5870 5870
5898 5899 5899 5900 5900 5900 5900 5900 5899 5898 5897 5894 5890 5891 5890 5890 5889 5888 5886 5885 5884 5884 5883 5881 5881 5880 5879 5877 5876 5875 5873 5872 5870 5869 5868 5866 5865 5863 5862 5861 5861 5861 5861 5861 5861 5862 5863 5864 5864
5894 5894 5894 5895 5895 5895 5894 5894 5894 5892 5891 5889 5886 5886 5886 5885 5885 5884 5882 5881 5879 5879 5878 5877 5876 5875 5874 5872 5870 5869 5867 5865 5864 5863 5862 5860 5858 5857 5856 5855 5854 5854 5853 5853 5854 5855 5856 5857 5858
5889 5890 5890 5890 5890 5890 5889 5889 5888 5887 5885 5884 5883 5881 5881 5881 5880 5879 5877 5876 5873 5872 5871 5871 5870 5869 5868 5866 5864 5862 5861 5859 5857 5856 5855 5853 5851 5850 5849 5848 5847 5846 5845 5845 5846 5847 5847 5849 5850
5885 5886 5886 5886 5886 5885 5885 5885 5883 5881 5880 5879 5878 5877 5875 5875 5875 5873 5872 5871 5868 5865 5866 5865 5864 5863 5862 5860 5858 5855 5854 5852 5851 5849 5847 5845 5843 5842 5841 5841 5840 5839 5838 5837 5838 5839 5840 5841 5843
5881 5882 5883 5884 5883 5882 5883 5880 5878 5877 5875 5874 5873 5871 5869 5869 5869 5868 5867 5865 5863 5861 5860 5859 5858 5857 5855 5853 5851 5849 5847 5845 5843 5840 5838 5836 5834 5833 5832 5832 5831 5830 5830 5830 5830 5831 5831 5833 5835
5879 5881 5882 5882 5880 5880 5879 5875 5874 5872 5870 5869 5867 5866 5865 5864 5863 5862 5861 5859 5858 5857 5855 5853 5852 5850 5847 5846 5843 5841 5839 5837 5835 5832 5830 5828 5826 5824 5823 5823 5821 5820 5821 5822 5822 5823 5824 5825 5827
5879 5880 5880 5879 5875 5875 5874 5872 5870 5867 5865 5862 5862 5861 5860 5859 5858 5856 5855 5854 5852 5851 5849 5848 5845 5843 5841 5839 5836 5833 5831 5829 5826 5823 5821 5819 5817 5816 5815 5814 5813 5811 5812 5813 5814 5815 5816 5818 5819
5876 5877 5878 5875 5873 5873 5871 5868 5864 5862 5859 5856 5855 5856 5855 5854 5853 5851 5850 5848 5846 5845 5843 5841 5838 5835 5833 5831 5828 5825 5822 5820 5817 5814 5813 5811 5809 5807 5806 5805 5805 5805 5804 5804 5805 5807 5808 5810 5811
5873 5874 5875 5873 5871 5870 5866 5863 5859 5856 5853 5851 5851 5852 5851 5849 5848 5846 5844 5842 5840 5838 5836 5834 5831 5828 5825 5822 5819 5817 5814 5811 5808 5806 5804 5802 5801 5799 5797 5797 5797 5797 5796 5796 5797 5798 5800 5802 5804
5871 5871 5870 5869 5868 5866 5863 5858 5853 5850 5849 5849 5849 5848 5846 5845 5843 5842 5839 5837 5834 5832 5829 5826 5823 5820 5817 5814 5811 5807 5804 5801 5799 5797 5795 5793 5792 5790 5789 5788 5789 5788 5788 5788 5789 5790 5792 5794 5795
5866 5866 5866 5866 5865 5863 5861 5854 5848 5843 5844 5844 5845 5845 5843 5841 5838 5836 5833 5831 5828 5825 5822 5818 5815 5812 5808 5804 5801 5798 5795 5792 5790 5787 5785 5784 5782 5781 5780 5779 5779 5779 5780 5779 5780 5781 5783 5785 5788
5863 5863 5862 5862 5860 5859 5852 5846 5840 5836 5837 5840 5841 5840 5838 5836 5833 5830 5827 5824 5821 5817 5814 5810 5807 5803 5799 5795 5792 5788 5785 5782 5779 5777 5775 5773 5772 5771 5770 5770 5769 5770 5770 5770 5771 5773 5774 5777 5779
5861 5861 5860 5857 5854 5850 5846 5842 5838 5835 5837 5838 5837 5836 5834 5831 5828 5824 5821 5818 5814 5810 5806 5802 5798 5794 5790 5786 5782 5778 5774 5771 5769 5766 5764 5762 5761 5759 5759 5759 5759 5759 5759 5760 5761 5762 5764 5767 5770
5859 5859 5857 5853 5848 5843 5842 5838 5834 5835 5837 5836 5835 5832 5830 5827 5823 5818 5814 5811 5806 5802 5797 5792 5788 5784 5780 5776 5771 5767 5764 5760 5758 5755 5753 5751 5750 5748 5747 5746 5747 5747 5748 5749 5750 5752 5754 5756 5759
5857 5857 5855 5852 5848 5842 5838 5836 5832 5833 5835 5835 5833 5830 5826 5822 5818 5813 5808 5804 5799 5794 5788 5783 5778 5774 5769 5765 5761 5757 5753 5749 5746 5743 5741 5739 5737 5736 5735 5734 5734 5734 5735 5736 5737 5740 5742 5744 5748
5856 5855 5854 5853 5851 5846 5840 5837 5835 5835 5835 5834 5831 5827 5823 5818 5813 5808 5802 5797 5791 5786 5780 5774 5769 5764 5759 5754 5750 5746 5742 5738 5735 5731 5728 5725 5723 5722 5721 5720 5720 5720 5721 5722 5724 5726 5728 5731 5735
5855 5853 5852 5850 5849 5848 5843 5838 5837 5835 5834 5831 5828 5824 5819 5814 5808 5802 5796 5790 5784 5778 5772 5766 5760 5754 5749 5744 5740 5735 5731 5727 5723 5719 5715 5712 5710 5707 5705 5705 5705 5705 5705 5706 5708 5710 5713 5716 5720
5853 5851 5849 5848 5847 5847 5844 5840 5836 5834 5831 5828 5825 5820 5814 5809 5803 5797 5790 5783 5777 5771 5764 5758 5752 5746 5740 5735 5729 5725 5720 5715 5710 5706 5702 5698 5695 5693 5691 5689 5688 5689 5689 5690 5691 5693 5696 5699 5703
5851 5850 5849 5848 5846 5845 5844 5841 5834 5831 5828 5825 5820 5815 5810 5804 5798 5791 5784 5777 5770 5764 5757 5750 5743 5737 5730 5724 5718 5713 5708 5702 5697 5692 5688 5684 5681 5678 5675 5673 5672 5671 5671 5672 5673 5675 5678 5681 5685